Location: Newark
(49.4900°N, 20.6656°E)
Time: 05:44:37
(UTC+00:00)

STARLINK-1764 - Pass Details

Date: 24 September 2020
Orbit: 379 x 380 km, 53.0° (Epoch: 23 October)

Event Time Altitude Azimuth Distance (km) Brightness Sun altitude
Exits shadow 01:35:38 19° 58° (ENE) 992 5.7 -27.0°
Drops below altitude 10° 01:36:43 10° 66° (ENE) 1,405 6.7 -26.9°
Sets 01:38:50 0° 73° (ENE) 2,259 7.9 -26.6°
